This is the latest recevied weather packets stored in our database for station/object PA1CG-7. If no packets are shown the sender has not sent any weather packets the latest 10 day(s).
| Time | Temp. | Humidity | Pressure | Rain* | Wind** | Luminosity | Snow |
|---|---|---|---|---|---|---|---|
| 1777665735 | 16.67° C | 53% | 1020.3 hPa | 0 mm | - | - | - |
| 1777665136 | 17.22° C | 51% | 1020.4 hPa | 0 mm | - | - | - |
| 1777664536 | 17.78° C | 50% | 1020.3 hPa | 0 mm | - | - | - |
| 1777663935 | 18.33° C | 48% | 1020.3 hPa | 0 mm | - | - | - |
| 1777663335 | 18.89° C | 47% | 1020.3 hPa | 0 mm | - | - | - |
| 1777662735 | 18.89° C | 45% | 1020.2 hPa | 0 mm | - | - | - |
| 1777662136 | 19.44° C | 44% | 1020.2 hPa | 0 mm | - | - | - |
| 1777661536 | 20° C | 42% | 1020.2 hPa | 0 mm | - | - | - |
| 1777660935 | 20.56° C | 41% | 1020.2 hPa | 0 mm | - | - | - |
| 1777660335 | 21.11° C | 40% | 1020.2 hPa | 0 mm | - | - | - |
| 1777659138 | 21.67° C | 37% | 1020.2 hPa | 0 mm | - | - | - |
| 1777658537 | 22.22° C | 36% | 1020.1 hPa | 0 mm | - | - | - |
| 1777657938 | 22.78° C | 35% | 1020.2 hPa | 0 mm | - | - | - |
| 1777657337 | 23.33° C | 34% | 1020.3 hPa | 0 mm | - | - | - |
| 1777656737 | 23.33° C | 31% | 1020.2 hPa | 0 mm | - | - | - |
| 1777656137 | 23.89° C | 30% | 1020.2 hPa | 0 mm | - | - | - |
| 1777655537 | 23.89° C | 26% | 1020.2 hPa | 0 mm | - | - | - |
| 1777654937 | 23.89° C | 25% | 1020.3 hPa | 0 mm | - | - | - |
| 1777654337 | 24.44° C | 24% | 1020.3 hPa | 0 mm | - | - | - |
| 1777653737 | 24.44° C | 24% | 1020.4 hPa | 0 mm | - | - | - |
| 1777653137 | 24.44° C | 23% | 1020.4 hPa | 0 mm | - | - | - |
| 1777652537 | 24.44° C | 23% | 1020.5 hPa | 0 mm | - | - | - |
| 1777651938 | 25° C | 24% | 1020.5 hPa | 0 mm | - | - | - |
| 1777651337 | 24.44° C | 24% | 1020.6 hPa | 0 mm | - | - | - |
| 1777650737 | 25° C | 24% | 1020.7 hPa | 0 mm | - | - | - |
* Rain latest hour (hover to see other rain measurements)
** Current wind speed in m/s (hover to see current wind gust speed)